Flag for U.S.A. Weather past 2 weeks in Hollywood, California, U.S.A.

Now
78 °F

Sunny.


Feels Like: 78 °F
Forecast: 60 / 83 °F
Wind: No wind

Location: Van Nuys Airport

Current Time: Oct 22, 2014 at 8:07:04 PM

Latest Report: Oct 22, 2014 at 6:51 PM


Visibility: 10 mi

Pressure: 29.89 "Hg

Humidity: 30%

Dew point: 44 °F

Location of HollywoodLocation

Historic Weather in Hollywood — Graph

°F

Hollywood temperature yesterday

Maximum temperature yesterday: 82 °F (at 1:51 PM)
Minimum temperature yesterday: 55 °F (at 6:51 AM)
Average temperature yesterday: 67 °F

Past Weeks' High & Low Weather Summary

 TemperatureHumidityPressure
High90 °F (Oct 13, 12:51 PM)97% (Oct 13, 8:51 AM)30.02 "Hg (Oct 13, 8:51 AM)
Low55 °F (Oct 21, 6:51 AM)11% (Oct 22, 2:51 PM)29.77 "Hg (Oct 8, 3:51 PM)
Average69 °F62%29.90 "Hg
* Reported Oct 7 6:51 PM — Oct 22 6:51 PM, Hollywood, Weather by CustomWeather, © 2014

Note: Actual official high and low records may vary slightly from our data, if they occured in-between our weather recording intervals... More about our weather records

Advertising

Hollywood weather history for previous 24 hours

 ConditionsComfort  
Time TempWeatherWind HumidityBarometerVisibility
6:51 PM
Oct 22
78 °FSunny.No wind30%29.89 "Hg10 mi
5:51 PM81 °FSunny.6 mph24%29.87 "Hg10 mi
4:51 PM86 °FSunny.9 mph20%29.85 "Hg10 mi
3:51 PM89 °FSunny.10 mph11%29.85 "Hg10 mi
2:51 PM89 °FSunny.3 mph11%29.86 "Hg10 mi
1:51 PM87 °FSunny.No wind16%29.87 "Hg10 mi
12:51 PM83 °FSunny.7 mph22%29.90 "Hg10 mi
11:51 AM80 °FSunny.5 mph24%29.92 "Hg10 mi
10:51 AM76 °FSunny.3 mph31%29.93 "Hg10 mi
9:51 AM70 °FSunny.No wind41%29.94 "Hg10 mi
8:51 AM64 °FSunny.No wind52%29.93 "Hg10 mi
7:51 AM58 °FClear.No wind70%29.92 "Hg10 mi
6:51 AM57 °FClear.No wind74%29.90 "Hg10 mi
5:51 AM57 °FClear.No wind74%29.89 "Hg10 mi
4:51 AM58 °FClear.No wind72%29.86 "Hg10 mi
3:51 AM58 °FClear.No wind75%29.87 "Hg10 mi
2:51 AM60 °FClear.3 mph67%29.86 "Hg10 mi
1:51 AM62 °FClear.No wind67%29.86 "Hg10 mi
12:51 AM63 °FClear.No wind70%29.85 "Hg10 mi
11:51 PM
Oct 21
65 °FClear.No wind61%29.86 "Hg10 mi
10:51 PM67 °FClear.No wind57%29.86 "Hg10 mi
9:51 PM68 °FClear.8 mph55%29.85 "Hg10 mi
8:51 PM69 °FClear.5 mph70%29.85 "Hg10 mi
Weather by CustomWeather, © 2014

See weather overviewHow to use our weather pages